Weather History for Twin Falls, ID

Change the Weather History Date:

Wednesday, July 10, 2013

  Actual Average Record
Temperature  
Mean Temperature 79 °F -  
Max Temperature 101 °F 89 °F 105 °F (2003)
Min Temperature 57 °F 57 °F 43 °F (1983)
Degree Days  
Heating Degree Days 0 0  
Month to date heating degree days 0 3  
Since 1 June heating degree days 55 90  
Since 1 July heating degree days 0 3  
Cooling Degree Days 14 8  
Month to date cooling degree days 151 71  
Year to date cooling degree days 349 180  
Since 1 June cooling degree days 324 158  
Growing Degree Days 29 (Base 50)    
Moisture  
Dew Point 41 °F    
Average Humidity 28    
Maximum Humidity 42    
Minimum Humidity 13    
Precipitation  
Precipitation 0.00 in 0.01 in 0.12 in (1983)
Month to date precipitation 0.15 0.11  
Year to date precipitation 3.18 6.37  
Sea Level Pressure  
Sea Level Pressure 29.81 in    
Wind  
Wind Speed 8 mph (SW)    
Max Wind Speed 15 mph    
Max Gust Speed 18 mph    
Visibility 10 miles    
Events      
T = Trace of Precipitation, MM = Missing Value Source: NWS Daily Summary

Daily Weather History Graph

Daily Weather History Graph

Search for Another Location

Airport:

Trip Planner

Search our weather history database for the weather conditions in past years. The results will help you decide how hot, cold, wet, or windy it might be!

Date:

Astronomy

Jul. 10, 2013 Rise Set
Actual Time 6:10 AM MDT 9:15 PM MDT
Civil Twilight 5:36 AM MDT 9:49 PM MDT
Nautical Twilight 4:52 AM MDT 10:33 PM MDT
Astronomical Twilight 4:00 AM MDT 11:25 PM MDT
Moon 8:39 AM MDT (7/10) 10:23 PM MDT (7/10)
Length of Visible Light 16h 13m
Length of Day
15h 05m
Waxing Crescent, 5% of the Moon is Illuminated
Jul 10
Waxing Crescent
Jul 15
First Quarter
Jul 22
Full
Jul 29
Last Quarter
Aug 6
New

Hourly Weather History & Observations

Time (MDT) Temp. Heat Index Dew Point Humidity Pressure Visibility Wind Dir Wind Speed Gust Speed Precip Events Conditions
12:53 AM 70.0 °F - 35.1 °F 28% 29.90 in 10.0 mi South 10.4 mph - N/A   Clear
1:53 AM 68.0 °F - 35.1 °F 30% 29.88 in 10.0 mi South 10.4 mph - N/A   Clear
2:53 AM 64.9 °F - 37.0 °F 36% 29.87 in 10.0 mi South 9.2 mph - N/A   Clear
3:53 AM 68.0 °F - 33.1 °F 27% 29.86 in 10.0 mi South 12.7 mph - N/A   Clear
4:53 AM 64.0 °F - 34.0 °F 33% 29.87 in 10.0 mi Calm Calm - N/A   Clear
5:53 AM 59.0 °F - 36.0 °F 42% 29.88 in 10.0 mi South 4.6 mph - N/A   Clear
6:53 AM 63.0 °F - 36.0 °F 37% 29.88 in 10.0 mi South 6.9 mph - N/A   Clear
7:53 AM 70.0 °F - 41.0 °F 35% 29.88 in 10.0 mi South 5.8 mph - N/A   Clear
8:53 AM 73.0 °F - 46.9 °F 39% 29.90 in 10.0 mi ESE 3.5 mph - N/A   Clear
9:53 AM 78.1 °F - 53.1 °F 42% 29.90 in 10.0 mi NNE 4.6 mph - N/A   Clear
10:53 AM 82.0 °F - 51.1 °F 34% 29.89 in 10.0 mi NNE 3.5 mph - N/A   Clear
11:53 AM 87.1 °F - 52.0 °F 30% 29.86 in 10.0 mi ENE 6.9 mph - N/A   Clear
12:53 PM 93.0 °F - 50.0 °F 23% 29.82 in 10.0 mi NE 8.1 mph - N/A   Clear
1:53 PM 97.0 °F 94.6 °F 53.1 °F 23% 29.80 in 10.0 mi North 10.4 mph - N/A   Clear
2:53 PM 99.0 °F - 43.0 °F 15% 29.78 in 10.0 mi West 9.2 mph - N/A   Clear
3:53 PM 99.0 °F - 43.0 °F 15% 29.76 in 10.0 mi WNW 11.5 mph - N/A   Clear
4:53 PM 99.0 °F - 39.9 °F 13% 29.74 in 10.0 mi NW 9.2 mph - N/A   Clear
5:53 PM 98.1 °F - 42.1 °F 15% 29.73 in 10.0 mi NNW 8.1 mph - N/A   Clear
6:53 PM 98.1 °F - 39.9 °F 13% 29.71 in 10.0 mi NW 5.8 mph - N/A   Clear
7:53 PM 96.1 °F - 44.1 °F 17% 29.71 in 10.0 mi West 8.1 mph - N/A   Clear
8:53 PM 90.0 °F - 36.0 °F 15% 29.71 in 10.0 mi West 6.9 mph - N/A   Clear
9:53 PM 84.0 °F - 42.1 °F 23% 29.72 in 10.0 mi SW 8.1 mph - N/A   Clear
10:53 PM 82.9 °F - 39.0 °F 21% 29.73 in 10.0 mi SW 13.8 mph - N/A   Clear
11:53 PM 82.0 °F - 28.9 °F 14% 29.74 in 10.0 mi SW 11.5 mph - N/A   Clear